Location: Unspecified
(0.0000°N, 0.0000°E)
Time: 20:48:11
(UTC+00:00)

Hubble Space Telescope - Pass Details

Date: 19 June 2019
Orbit: 536 x 540 km, 28.5° (Epoch: 26 June)

Event Time Altitude Azimuth Distance (km) Brightness Sun altitude
Rises 18:52:32 0° 226° (SW) 2,681 4.6 -11.7°
Reaches altitude 10° 18:54:56 10° 218° (SW) 1,788 3.6 -12.3°
Maximum altitude 18:58:45 36° 150° (SSE) 862 1.4 -13.1°
Enters shadow 19:00:53 21° 97° (E) 1,231 2.0 -13.6°
